Regional Weather Roundup
Issued by NWS

Home | Current Version | Previous Version | Text Only | Print | Product List | Glossary On
Versions: 1 2 3 4 5 6 7 8 9 10 11 12 13 14 15 16 17 18 19 20 21 22 23 24 25 26 27 28 29 30 31 32 33 34 35 36 37 38 39 40 41 42 43 44 45 46 47 48 49 50
000
ASUS43 KMKX 272111
RWRWI

WISCONSIN REGIONAL WEATHER ROUNDUP
NATIONAL WEATHER SERVICE MILWAUKEE/SULLIVAN WI
400 PM CDT SUN MAY 27 2018

NOTE: "FAIR" INDICATES FEW OR NO CLOUDS BELOW 12,000 FEET WITH NO
SIGNIFICANT WEATHER AND/OR OBSTRUCTIONS TO VISIBILITY.

WIZ001-002-006>008-014>016-023>028-272200-
NORTHWEST WISCONSIN

CITY           SKY/WX    TMP DP  RH WIND       PRES   REMARKS
SUPERIOR ARPT  FAIR      82  60  46 NE5       29.80R HX  82
ASHLAND        FAIR      74  62  66 NW10      29.80F
HAYWARD        FAIR      86  61  42 S10       29.81F HX  86
SIREN          FAIR      82  58  45 SW13      29.84R HX  82
CUMBERLAND     FAIR      81  52  36 NW3       29.86R HX  80
RICE LAKE      FAIR      87  53  31 SE3       29.85R HX  84
CHETEK         FAIR      87  61  41 S3        29.83R HX  87
LADYSMITH      FAIR      87  53  31 E3        29.84F HX  84
EAU CLAIRE     FAIR      93  54  26 E6        29.82F HX  91
MENOMONIE      FAIR      90  56  31 S3        29.84S HX  88
NEW RICHMOND   FAIR      85  53  33 CALM      29.85S HX  83
OSCEOLA        FAIR      89  57  33 SE10      29.87S HX  87
$$

WIZ003>005-009-010-017-018-272200-
NORTH CENTRAL WISCONSIN

CITY           SKY/WX    TMP DP  RH WIND       PRES   REMARKS
MANITOWISH WTR FAIR      85  55  34 SE3       29.85F HX  84
ARBOR VITAE    FAIR      85  52  31 CALM      29.86F HX  83
WOODRUFF       FAIR      85  52  31 CALM      29.86F HX  83
RHINELANDER    FAIR      91  53  27 NW8       29.90F HX  88
EAGLE RIVER    FAIR      85  48  27 NW6       29.89F HX  83
LAND O LAKES   FAIR      86  48  26 W6        29.90F HX  83
PHILLIPS       FAIR      87  55  33 CALM      29.84F HX  85
TOMAHAWK       FAIR      88  48  25 NW7G16    29.88F HX  85
MEDFORD        FAIR      88  52  28 NW5       29.88F HX  85
MERRILL        FAIR      90  54  29 NW8       29.90F HX  87
$$

WIZ029-030-035-036-043>047-272200-
CENTRAL WISCONSIN

CITY           SKY/WX    TMP DP  RH WIND       PRES   REMARKS
WAUSAU         FAIR      91  50  24 NW9G22    29.88S HX  88
MOSINEE        PTSUNNY   88  52  29 NW10      29.92R HX  85
MARSHFIELD     FAIR      93  56  28 NW12      29.89S HX  91
STEVENS POINT  FAIR      90  51  26 N8G17     29.90R HX  87
WAUPACA        FAIR      98  46  16 W9        29.87S HX  94
WAUTOMA        FAIR      93  52  24 NW8G17    29.86  HX  90
WISC RAPIDS    FAIR      98  51  20 NW13      29.90S HX  95
CAMP DOUGLAS   FAIR      96  53  23 NW6       29.87F HX  93
$$

WIZ011>013-019>022-031-037>040-048>050-272200-
NORTHEAST WISCONSIN

CITY           SKY/WX    TMP DP  RH WIND       PRES   REMARKS
ANTIGO         FAIR      87  52  29 NW9       29.91S HX  85
SHAWANO        FAIR      94  47  20 NW14G26   29.85S HX  90
OCONTO         FAIR      87  59  39 SE5       29.85R HX  86
STURGEON BAY   FAIR      80  61  52 E9        29.87S HX  81
GREEN BAY      PTSUNNY   95  56  26 VRB7      29.85R HX  93
MANITOWOC      NOT AVBL
APPLETON       PTSUNNY   91  45  19 NW14      29.85S HX  88
CLINTONVILLE   FAIR      95  43  16 NW13      29.86S HX  91
OSHKOSH        FAIR      92  55  28 NW14      29.85S HX  90
$$

WIZ032>034-041-042-053>061-272200-
SOUTHWEST WISCONSIN

CITY           SKY/WX    TMP DP  RH WIND       PRES   REMARKS
LA CROSSE      FAIR      94  54  25 NE9       29.86R HX  92
SPARTA         FAIR      93  48  21 N8        29.88R HX  90
VIROQUA        FAIR      94  56  27 N5        29.89F HX  92
BOSCOBEL       FAIR      96  59  29 VRB3      29.84F HX  95
PRAIRIE DU CHI FAIR      93  59  32 E7        29.84S HX  92
PLATTEVILLE    FAIR      93  63  36 N5        29.86F HX  94
$$

WIZ056-057-062-063-064-067-068-272200-
SOUTH CENTRAL WISCONSIN

CITY           SKY/WX    TMP DP  RH WIND       PRES   REMARKS
REEDSBURG      FAIR      94  58  29 NW8       29.86F HX  93
BARABOO/DELLS  FAIR      94  49  21 NW8       29.87S HX  90
LONE ROCK      FAIR      96  61  31 N8        29.84F HX  96
MINERAL POINT  FAIR      95  54  24 N8        29.87F HX  93
MADISON        PTSUNNY   94  64  37 W6        29.84F HX  95
MIDDLETON      FAIR      96  58  28 NW9       29.86S HX  95
WATERTOWN      PTSUNNY   89  62  41 W12G20    29.85S HX  89
MONROE         FAIR      93  57  29 N6        29.86F HX  92
JANESVILLE     MOSUNNY   97  55  24 SW6       29.84F HX  95
$$

WIZ051-052-058>065-066-070>072-272200-
SOUTHEAST WISCONSIN

CITY           SKY/WX    TMP DP  RH WIND       PRES   REMARKS
MILWAUKEE      PTSUNNY   83  64  52 SE13      29.85R HX  84
WAUKESHA       SUNNY     90  57  33 SW5       29.86F HX  88
MILWAUKEE/TIMM PTSUNNY   91  54  27 CALM      29.86S HX  89
RACINE         FAIR      83  63  50 SE10      29.87F HX  84
BURLINGTON     FAIR      93  56  29 CALM      29.85F HX  91
KENOSHA        FAIR      89  65  44 SE12      29.85F HX  91
FOND DU LAC    FAIR      93  61  34 NE7       29.85S HX  93
SHEBOYGAN      FAIR      85  63  47 SE12      29.86R HX  86
WEST BEND      LGT RAIN  77  64  65 CALM      29.89R
JUNEAU         PTSUNNY   92  63  38 W5        29.87R HX  93
$$

LSZ147-162-272200-
LAKE SUPERIOR

STATION/POSITION TIME  TEMP    WIND        PRES    WAVE
                       AIR SEA DIR/SP/G            HT/PER
                 (UTC) (F)     (DEG/KT/KT) (MB)    (FT/S)
W MID LAKE BUOY  2050   40 37   50/  6/  8 1010.2F   0
DEVILS ISLAND    2100   58      60/  4/  5 1009.9R
SAXON HARBOR     2030   76      10/  2/  4 1008.5F
$$

LMZ867-665-643>646-272200-
LAKE MICHIGAN

STATION/POSITION TIME  TEMP    WIND        PRES    WAVE
                       AIR SEA DIR/SP/G            HT/PER
                 (UTC) (F)     (DEG/KT/KT) (MB)    (FT/S)
N MID LAKE BUOY  2050   43 38  190/  6/  8 1011.3F   1
NORTHPORT PIER   2040   69     150/  4/  6 1011.2S
KEWAUNEE LAKESHO 2048   62     160/  4/  5 1011.2R
SHEBOYGAN LAKESH 2100   63     130/  5/  6 1010.9R
PORT WASHINGTON  2040   71      50/  4/ 10 1012.5R
ATWATER BUOY     2007   63 55  150/ 10/ 14 1011.1    1/ 2
MILWAUKEE LAKESH 2050   66     140/ 13/ 16   N/A
S MID LAKE BUOY  2050   59 47  160/  8/ 10 1011.6F   0
KENOSHA   LAKESH 2100   72                 1010.5
$$

TC  - TEMPERATURE IN CELSIUS
VSB - VISIBILITY IN STATUTE MILES
WCI - WIND CHILL INDEX
HX  - HEAT INDEX




USA.gov is the U.S. government's official web portal to all federal, state and local government web resources and services.